Weather History for KNTU - November, 2012

Change the Weather History Date:

Wednesday, November 14, 2012

  Actual Average Record
Temperature  
Mean Temperature 46 °F -  
Max Temperature 51 °F 57 °F 77 °F (1999)
Min Temperature 42 °F 40 °F 28 °F (2013)
Degree Days  
Heating Degree Days 18    
Moisture  
Dew Point 36 °F    
Average Humidity 67    
Maximum Humidity 76    
Minimum Humidity 61    
Precipitation  
Precipitation 0.00 in - - ()
Sea Level Pressure  
Sea Level Pressure 30.42 in    
Wind  
Wind Speed 14 mph (North)    
Max Wind Speed 20 mph    
Max Gust Speed 29 mph    
Visibility 10 miles    
Events      
Averages and records for this station are not official NWS values.
T = Trace of Precipitation, MM = Missing Value Source: NWS Daily Summary

Daily Weather History Graph

Daily Weather History Graph

Search for Another Location

Airport or City:

Trip Planner

Search our weather history database for the weather conditions in past years. The results will help you decide how hot, cold, wet, or windy it might be!

Date:

Astronomy

Nov. 14, 2012 Rise Set
Actual Time 6:41 AM EST 4:55 PM EST
Civil Twilight 6:14 AM EST 5:22 PM EST
Nautical Twilight 5:42 AM EST 5:53 PM EST
Astronomical Twilight 5:12 AM EST 6:24 PM EST
Moon 7:27 AM EST (11/14) 5:43 PM EST (11/14)
Length of Visible Light 11h 08m
Length of Day
10h 13m
New Moon, 1% of the Moon is Illuminated
Nov 14
New Moon
Nov 20
First Quarter
Nov 28
Full
Dec 6
Last Quarter
Dec 13
New

Hourly Weather History & Observations

Time (EST) Temp. Windchill Dew Point Humidity Pressure Visibility Wind Dir Wind Speed Gust Speed Precip Events Conditions
12:56 AM 46.9 °F - 35.1 °F 63% 30.40 in 10.0 mi North 13.8 mph 23.0 mph N/A   Mostly Cloudy
1:56 AM 46.9 °F - 35.1 °F 63% 30.40 in 10.0 mi North 15.0 mph 23.0 mph N/A   Overcast
2:56 AM 46.9 °F - 36.0 °F 66% 30.40 in 10.0 mi North 16.1 mph 21.9 mph N/A   Overcast
3:56 AM 46.0 °F 39.9 °F 36.0 °F 68% 30.40 in 10.0 mi NNE 13.8 mph 24.2 mph N/A   Overcast
4:56 AM 44.1 °F 36.8 °F 33.1 °F 65% 30.41 in 10.0 mi North 16.1 mph 24.2 mph N/A   Scattered Clouds
5:56 AM 43.0 °F 37.7 °F 33.1 °F 68% 30.43 in 10.0 mi North 9.2 mph - N/A   Scattered Clouds
6:56 AM 42.1 °F 34.9 °F 34.0 °F 73% 30.45 in 10.0 mi NNE 13.8 mph - N/A   Mostly Cloudy
7:39 AM 42.8 °F 36.2 °F 35.6 °F 76% 30.44 in 10.0 mi North 12.7 mph - N/A   Mostly Cloudy
7:56 AM 43.0 °F 36.4 °F 36.0 °F 76% 30.45 in 10.0 mi NNE 12.7 mph - N/A   Mostly Cloudy
8:56 AM 45.0 °F 37.6 °F 37.0 °F 74% 30.45 in 10.0 mi North 17.3 mph 23.0 mph N/A   Mostly Cloudy
9:56 AM 46.9 °F - 37.9 °F 71% 30.46 in 10.0 mi North 17.3 mph 24.2 mph N/A   Mostly Cloudy
10:20 AM 48.2 °F - 39.2 °F 71% 30.45 in 10.0 mi North 17.3 mph 24.2 mph N/A   Mostly Cloudy
10:56 AM 51.1 °F - 39.9 °F 66% 30.45 in 10.0 mi North 19.6 mph 25.3 mph N/A   Scattered Clouds
11:56 AM 50.0 °F - 39.0 °F 66% 30.44 in 10.0 mi NNE 17.3 mph 28.8 mph N/A   Scattered Clouds
12:56 PM 50.0 °F - 37.9 °F 63% 30.42 in 10.0 mi North 16.1 mph 26.5 mph N/A   Mostly Cloudy
1:56 PM 48.9 °F - 37.0 °F 64% 30.42 in 10.0 mi North 13.8 mph - N/A   Mostly Cloudy
2:44 PM 48.2 °F - 35.6 °F 62% 30.41 in 10.0 mi North 13.8 mph - N/A   Mostly Cloudy
2:56 PM 48.0 °F - 35.1 °F 61% 30.42 in 10.0 mi North 15.0 mph 20.7 mph N/A   Mostly Cloudy
3:56 PM 46.9 °F - 35.1 °F 63% 30.42 in 10.0 mi North 12.7 mph - N/A   Mostly Cloudy
4:56 PM 46.0 °F 41.4 °F 35.1 °F 66% 30.41 in 10.0 mi North 9.2 mph - N/A   Mostly Cloudy
5:56 PM 45.0 °F 40.6 °F 35.1 °F 68% 30.40 in 10.0 mi North 8.1 mph - N/A   Mostly Cloudy
6:56 PM 46.0 °F 43.1 °F 36.0 °F 68% 30.41 in 10.0 mi NNE 5.8 mph - N/A   Mostly Cloudy
7:56 PM 46.9 °F - 35.1 °F 63% 30.41 in 10.0 mi NE 10.4 mph - N/A   Mostly Cloudy
8:56 PM 46.0 °F 41.9 °F 35.1 °F 66% 30.41 in 10.0 mi North 8.1 mph - N/A   Mostly Cloudy
9:56 PM 45.0 °F 39.7 °F 35.1 °F 68% 30.39 in 10.0 mi North 10.4 mph - N/A   Overcast
10:56 PM 45.0 °F 41.2 °F 34.0 °F 65% 30.39 in 10.0 mi North 6.9 mph - N/A   Overcast
11:56 PM 46.0 °F 41.9 °F 36.0 °F 68% 30.36 in 10.0 mi North 8.1 mph - N/A   Overcast